CW6421 Weather Reports


Display with metric or nautical units.
time (UTC)temp
F
wind
direction
speed
MPH
gust
MPH
rain 1hr
in
rain 24hr
in
rain mn
in
humidity
%
barometer
mb
20260905182529 62 269 9.0 16.0 0.00 0.13 0.00 74 1018.5
20260905181531 62 250 9.0 19.0 0.00 0.13 0.00 74 1018.5
20260905180530 62 253 10.0 16.0 0.00 0.13 0.00 75 1017.9
20260905175528 62 259 10.0 16.0 0.00 0.13 0.00 75 1017.9
20260905174534 62 270 14.0 17.0 0.01 0.13 0.00 75 1017.9
20260905173529 62 263 14.0 18.0 0.01 0.13 0.00 75 1017.9
20260905172529 62 271 12.0 17.0 0.02 0.13 0.00 75 1017.9
20260905170531 62 271 12.0 35.0 0.03 0.13 0.00 76 1017.3
20260905165529 63 265 14.0 32.0 0.03 0.16 0.00 75 1017.3
20260905163531 63 265 13.0 34.0 0.02 0.23 0.00 75 1017.3
20260905162530 63 270 11.0 32.0 0.02 0.26 0.00 75 1017.3
20260905161532 63 260 14.0 38.0 0.02 0.29 0.00 76 1017.3
20260905160533 63 276 11.0 37.0 0.02 0.32 0.00 76 1017.1
20260905155530 63 279 11.0 36.0 0.02 0.32 0.00 76 1017.1
20260905154534 63 283 15.0 32.0 0.02 0.32 0.00 76 1017.1
20260905153532 63 271 18.0 35.0 0.03 0.32 0.00 76 1017.1
20260905152529 62 273 15.0 32.0 0.03 0.31 0.00 77 1017.1
20260905151533 62 302 19.0 35.0 0.04 0.31 0.00 78 1017.1
20260905150530 62 308 20.0 37.0 0.04 0.31 0.00 78 1015.5
20260905143530 63 254 24.0 36.0 0.02 0.29 0.00 77 1015.5
20260905142529 64 253 24.0 34.0 0.01 0.28 0.00 76 1015.5
20260905141532 66 259 15.0 36.0 0.01 0.28 0.00 70 1015.5
20260905140529 67 257 18.0 32.0 0.00 0.27 0.00 68 1015.3
20260905135529 68 261 17.0 33.0 0.00 0.27 0.00 62 1015.3
20260905134532 69 273 26.0 38.0 0.00 0.27 0.00 59 1015.3
20260905133529 71 262 24.0 34.0 0.00 0.27 0.00 58 1015.3
20260905132535 70 280 24.0 41.0 0.00 0.27 0.00 59 1015.3
20260905131531 71 261 20.0 38.0 0.00 0.27 0.00 59 1015.3
20260905130530 71 270 22.0 35.0 0.00 0.27 0.00 60 1015.6
20260905125529 70 264 20.0 35.0 0.00 0.27 0.00 60 1015.6
20260905124533 71 269 23.0 33.0 0.00 0.27 0.00 60 1015.6
20260905123529 70 265 23.0 33.0 0.00 0.27 0.00 61 1015.6
20260905122529 71 263 22.0 36.0 0.00 0.27 0.00 61 1015.6
20260905121532 69 269 23.0 32.0 0.00 0.27 0.00 63 1015.6
20260905120530 69 259 22.0 36.0 0.00 0.27 0.00 63 1015.2
20260905115529 68 254 20.0 32.0 0.00 0.27 0.00 64 1015.2
20260905114532 68 256 25.0 34.0 0.00 0.27 0.00 63 1015.2
20260905113530 68 267 22.0 35.0 0.00 0.27 0.00 64 1015.2
20260905112530 69 268 26.0 36.0 0.00 0.27 0.00 64 1015.2
20260905111532 69 259 19.0 30.0 0.00 0.27 0.00 64 1015.2
20260905110529 68 266 19.0 33.0 0.00 0.27 0.00 66 1015.6
20260905104532 66 269 26.0 34.0 0.00 0.27 0.00 73 1015.6
20260905102530 68 263 22.0 36.0 0.00 0.27 0.00 65 1015.6
20260905101531 67 258 23.0 36.0 0.00 0.27 0.00 67 1015.6
20260905100529 66 259 22.0 37.0 0.00 0.27 0.00 68 1015.4
20260905095530 66 266 19.0 31.0 0.00 0.27 0.00 69 1015.4
20260905094533 66 258 23.0 27.0 0.00 0.27 0.00 69 1015.4
20260905093530 66 265 20.0 26.0 0.00 0.27 0.00 69 1015.4
20260905092529 66 258 23.0 27.0 0.00 0.27 0.00 70 1015.4
20260905091533 66 267 20.0 26.0 0.00 0.27 0.00 71 1015.4
20260905090529 65 251 22.0 32.0 0.00 0.27 0.00 72 1015.0
20260905085529 65 258 18.0 30.0 0.00 0.27 0.00 74 1015.0
20260905084531 64 250 18.0 31.0 0.00 0.27 0.00 75 1015.0
20260905083529 64 258 17.0 26.0 0.00 0.27 0.00 78 1015.0
20260905082529 64 269 17.0 30.0 0.00 0.27 0.00 78 1015.0
20260905081532 63 274 17.0 32.0 0.00 0.27 0.00 79 1015.0
20260905080529 63 277 20.0 27.0 0.00 0.27 0.00 79 1014.8
20260905073529 61 265 16.0 27.0 0.00 0.27 0.00 83 1014.8
20260905071531 61 264 14.0 27.0 0.00 0.27 0.00 84 1014.8
20260905070529 60 254 18.0 27.0 0.00 0.27 0.00 84 1014.3
20260905065529 60 268 14.0 26.0 0.00 0.27 0.00 85 1014.3
20260905064532 60 270 15.0 27.0 0.00 0.27 0.00 86 1014.3
20260905063528 59 250 16.0 30.0 0.00 0.27 0.00 86 1014.3
20260905062529 59 252 14.0 28.0 0.00 0.27 0.00 86 1014.3
20260905054532 58 258 12.0 19.0 0.00 0.27 0.00 87 1013.8
20260905053529 58 245 12.0 20.0 0.00 0.27 0.00 87 1013.8
20260905052529 58 249 13.0 19.0 0.00 0.27 0.00 87 1013.8
20260905051531 58 248 13.0 18.0 0.00 0.27 0.00 87 1013.8
20260905050529 58 245 11.0 18.0 0.00 0.27 0.00 87 1013.2
20260905045527 58 253 11.0 18.0 0.00 0.27 0.00 86 1013.2
20260905044531 58 257 10.0 22.0 0.00 0.27 0.00 86 1013.2
20260905043530 58 245 12.0 21.0 0.00 0.27 0.00 86 1013.2
20260905042529 59 245 13.0 20.0 0.00 0.27 0.00 86 1013.2
20260905041532 59 250 12.0 22.0 0.00 0.27 0.00 86 1013.2
20260905040529 59 256 13.0 24.0 0.00 0.27 0.00 86 1012.6
20260905035528 59 246 14.0 21.0 0.00 0.27 0.00 86 1012.6
20260905034531 59 254 13.0 23.0 0.00 0.27 0.00 86 1012.6
20260905033529 59 255 15.0 23.0 0.00 0.27 0.00 86 1012.6
20260905032527 59 264 13.0 20.0 0.00 0.27 0.00 86 1012.6
20260905031530 59 268 13.0 22.0 0.00 0.27 0.00 86 1012.6
20260905030530 59 254 13.0 22.0 0.00 0.27 0.00 86 1012.2
20260905024530 60 257 15.0 22.0 0.00 0.27 0.00 86 1012.2
20260905023529 60 252 13.0 20.0 0.00 0.27 0.00 86 1012.2
20260905022530 60 265 13.0 21.0 0.00 0.27 0.00 86 1012.2
20260905021531 60 265 13.0 20.0 0.00 0.27 0.00 86 1012.2
20260905020529 60 254 13.0 19.0 0.00 0.27 0.00 86 1011.9
20260905015529 60 253 14.0 18.0 0.00 0.27 0.00 86 1011.9
20260905014529 60 258 14.0 19.0 0.00 0.27 0.00 86 1011.9
20260905011531 61 245 14.0 20.0 0.00 0.27 0.00 87 1011.9
20260905010530 61 241 15.0 19.0 0.00 0.27 0.00 87 1011.6
20260905004530 61 250 12.0 22.0 0.00 0.27 0.00 88 1011.6
20260905003528 61 255 11.0 20.0 0.00 0.27 0.00 88 1011.6
20260905002528 61 260 12.0 19.0 0.00 0.27 0.00 88 1011.6
20260905000530 61 255 13.0 19.0 0.00 0.27 0.00 88 1011.1
20260904234530 62 243 12.0 20.0 0.00 0.27 0.00 88 1011.1
20260904233530 62 258 12.0 22.0 0.00 0.27 0.00 88 1011.1
20260904232530 62 250 14.0 20.0 0.00 0.27 0.00 88 1011.1
20260904231530 62 257 14.0 22.0 0.00 0.27 0.00 88 1011.1
20260904230530 62 252 15.0 19.0 0.00 0.27 0.00 88 1009.9
20260904225529 62 248 14.0 21.0 0.00 0.27 0.00 89 1009.9
20260904224532 62 252 15.0 18.0 0.00 0.27 0.00 89 1009.9
20260904223531 62 259 14.0 20.0 0.00 0.27 0.00 89 1009.9
20260904221531 62 243 14.0 21.0 0.00 0.27 0.00 90 1009.9
20260904220530 62 251 15.0 19.0 0.00 0.27 0.00 90 1009.3
20260904215530 62 240 14.0 20.0 0.00 0.27 0.00 90 1009.3
20260904214532 62 259 12.0 31.0 0.00 0.27 0.00 90 1009.3
20260904212528 62 246 14.0 28.0 0.00 0.27 0.00 91 1009.3
20260904211532 62 246 14.0 31.0 0.00 0.27 0.00 91 1009.3
20260904210531 62 256 14.0 31.0 0.00 0.27 0.00 91 1008.6
20260904205530 62 255 12.0 25.0 0.00 0.27 0.00 91 1008.6
20260904204532 62 265 10.0 31.0 0.01 0.27 0.00 91 1008.6
20260904203529 62 261 12.0 31.0 0.01 0.27 0.00 91 1008.6
20260904202528 62 265 12.0 29.0 0.02 0.27 0.00 91 1008.6
20260904201530 62 268 13.0 27.0 0.02 0.27 0.00 91 1008.6
20260904200531 62 261 12.0 25.0 0.03 0.27 0.00 91 1008.2
20260904195530 62 271 15.0 30.0 0.03 0.27 0.00 91 1008.2
20260904194531 62 270 16.0 29.0 0.03 0.26 0.00 91 1008.2
20260904193530 62 250 16.0 32.0 0.03 0.26 0.00 91 1008.2
20260904192529 62 259 13.0 30.0 0.02 0.25 0.00 91 1008.2
20260904191532 62 247 18.0 27.0 0.02 0.25 0.00 91 1008.2
20260904190531 62 242 17.0 30.0 0.02 0.24 0.00 90 1007.1
20260904185530 62 245 19.0 25.0 0.02 0.24 0.00 91 1007.1
20260904184531 62 245 18.0 27.0 0.02 0.24 0.00 90 1007.1
20260904183529 62 231 19.0 28.0 0.01 0.23 0.00 90 1007.1